Overview Statistics Trail Chart Weather Telemetry Raw packets
 

This is the latest recevied weather packets stored in our database for station/object KE0TNI-13. If no packets are shown the sender has not sent any weather packets the latest 10 day(s).

<< 56 57 58 59 60 61 62 >>
Time Temp. Humidity Pressure Rain* Wind** Luminosity Snow
1777294893 -2.22° C 77% 1011.7 hPa 0 mm - 40 W/m² -
1777294592 -2.78° C 78% 1011.7 hPa 0 mm - 31 W/m² -
1777294292 -3.33° C 79% 1011.4 hPa 0 mm - 24 W/m² -
1777293986 -3.33° C 81% 1011 hPa 0 mm - 17 W/m² -
1777293682 -3.33° C 81% 1011 hPa 0 mm - 11 W/m² -
1777293382 -3.33° C 79% 1011 hPa 0 mm - 9 W/m² -
1777293079 -2.78° C 79% 1010.8 hPa 0 mm - 7 W/m² -
1777292778 -3.33° C 78% 1010.9 hPa 0 mm - 6 W/m² -
1777292474 -2.78° C 78% 1010.6 hPa 0 mm - 5 W/m² -
1777292171 -3.33° C 78% 1010.6 hPa 0 mm - 4 W/m² -
1777291867 -2.78° C 79% 1010.2 hPa 0 mm - 2 W/m² -
1777291564 -3.33° C 80% 1010.1 hPa 0 mm - 1 W/m² -
1777291261 -3.33° C 81% 1010 hPa 0 mm - 1 W/m² -
1777290957 -3.33° C 80% 1009.7 hPa 0 mm - 0 W/m² -
1777290655 -2.78° C 79% 1009.7 hPa 0 mm - 0 W/m² -
1777290351 -3.33° C 80% 1009.6 hPa 0 mm - 0 W/m² -
1777290046 -2.78° C 79% 1009.9 hPa 0 mm - 0 W/m² -
1777289743 -2.78° C 76% 1009.7 hPa 0 mm - 0 W/m² -
1777289439 -3.33° C 79% 1009.7 hPa 0 mm - 0 W/m² -
1777289136 -2.78° C 79% 1009.7 hPa 0 mm - 0 W/m² -
1777288832 -3.33° C 80% 1009.7 hPa 0 mm - 0 W/m² -
1777288529 -3.33° C 80% 1009.7 hPa 0 mm - 0 W/m² -
1777288226 -2.78° C 79% 1009.7 hPa 0 mm - 0 W/m² -
1777287922 -2.78° C 79% 1009.7 hPa 0 mm - 0 W/m² -
1777287619 -3.33° C 80% 1009.7 hPa 0 mm - 0 W/m² -

* Rain latest hour (hover to see other rain measurements)
** Current wind speed in m/s (hover to see current wind gust speed)